SCP
0 0 0 1 1 1 0 0 0 0 0 0 0 0 0 0 0 0 1 1 1 1 1 2 1 1 1 1 1 1 1 1 1 1 1 1 1 1 1 1 1 1 0
1 0 1 1 1 1 1 1 1 0 0 0 0 0 0 0 0 0 0 1 1 1 1 2 1 1 1 1 1 1 1 1 1 1 1 1 1 1 1 1 1 1 1
1 1 1 1 1 1 0 1 1 1 0 0 0 0 0 0 0 0 0 0 1 1 1 1 2 2 2 2 2 2 2 2 1 1 1 1 1 1 1 1 1 1 1
1 1 1 1 1 1 0 0 0 0 0 0 0 0 0 0 0 0 0 0 0 1 1 1 2 2 2 2 2 2 2 2 1 1 1 1 1 1 1 1 1 1 1
1 1 1 1 1 1 1 0 0 0 0 0 0 0 0 1 1 0 0 0 0 0 1 1 1 2 2 3 3 3 3 3 2 2 1 1 1 1 1 1 1 1 1
2 1 1 1 1 1 1 0 0 0 0 0 0 0 1 1 1 1 0 0 0 0 1 1 1 2 2 3 3 3 3 3 3 2 2 1 1 1 1 1 1 1 1
2 2 2 2 1 1 1 1 0 0 0 0 0 1 1 1 1 1 0 0 0 0 1 1 1 2 3 3 3 3 4 4 4 4 3 2 1 1 1 1 1 1 1
2 2 2 2 1 1 1 1 1 1 1 0 1 1 1 1 0 0 0 0 0 0 1 1 1 2 3 3 3 3 4 4 5 5 4 3 2 2 1 1 1 1 1
2 2 2 2 1 1 1 1 1 1 1 1 1 1 1 0 0 0 0 0 0 0 0 1 1 2 3 3 3 3 3 3 4 5 5 4 3 2 2 1 1 1 1
2 2 2 2 1 1 1 1 1 1 1 1 1 1 1 1 0 0 0 1 1 0 0 0 1 1 2 3 2 2 2 2 3 4 4 4 4 3 2 1 1 1 1
2 2 2 2 2 1 1 1 1 1 1 1 1 1 1 1 1 1 1 1 1 1 1 1 1 1 2 2 2 1 1 1 1 2 3 3 4 3 3 2 1 1 1
2 2 2 2 2 2 2 2 1 1 1 1 1 1 1 1 1 1 1 1 1 1 1 1 1 1 1 1 1 1 1 1 1 1 1 2 2 3 2 2 1 1 1
2 2 2 2 2 3 3 2 2 2 1 1 1 1 1 1 1 1 1 1 1 1 1 1 1 1 1 1 1 1 1 0 0 0 1 1 1 2 2 1 1 1 1
3 2 2 2 2 3 3 3 3 2 2 2 1 1 2 2 2 2 2 2 2 2 2 2 1 1 1 1 1 1 1 0 0 0 0 0 1 1 2 1 1 1 1
3 2 2 2 3 4 4 4 4 3 2 2 2 2 2 2 2 2 2 3 3 3 3 2 1 1 1 1 1 1 0 0 0 0 0 0 1 1 2 1 1 1 1
3 3 3 3 3 4 5 5 4 3 3 2 2 2 2 2 3 3 3 3 3 4 3 1 1 1 1 1 1 0 0 0 0 0 0 0 0 1 1 1 1 1 1
4 3 3 4 4 4 5 5 5 4 3 3 3 3 3 3 3 3 3 2 2 2 1 1 1 1 1 1 1 0 0 0 0 0 0 0 0 1 1 1 1 1 1
5 5 5 5 5 5 5 5 5 4 3 3 3 3 4 4 4 3 2 1 1 1 1 1 1 1 1 1 0 0 0 0 0 0 0 0 0 0 0 0 1 0 0
6 5 5 6 6 6 6 6 5 4 4 4 4 4 4 4 3 2 1 1 1 1 1 1 1 1 1 1 0 0 0 0 0 0 0 0 0 0 0 0 0 0 0
6 5 5 6 6 6 6 6 5 4 4 4 4 4 3 3 3 2 2 2 2 1 1 1 1 1 1 0 0 0 0 0 0 0 0 0 0 0 0 0 0 0 0
5 4 4 4 5 5 5 5 4 4 4 4 4 3 3 3 3 2 3 2 2 2 1 1 1 1 1 0 0 0 0 0 0 0 0 0 0 0 0 0 0 0 0
4 4 4 4 4 4 4 4 3 3 3 3 3 3 3 3 3 3 2 2 2 2 2 1 1 1 1 0 0 0 0 0 0 0 0 0 0 0 0 0 0 0 0
5 4 4 3 3 3 3 2 2 3 3 3 4 3 3 3 3 3 2 1 1 1 1 2 2 1 1 1 0 0 0 0 0 0 0 0 0 0 0 0 0 0 0
6 5 4 3 3 3 2 2 2 2 3 3 3 3 3 3 3 3 2 1 1 1 1 1 2 2 2 1 0 0 0 0 0 0 0 0 0 0 0 0 0 0 0
6 5 3 3 3 2 2 1 2 2 3 3 3 3 4 4 4 3 3 2 1 1 1 1 2 2 2 1 0 0 0 0 0 0 0 0 0 0 0 0 0 0 0
6 5 3 2 2 2 2 1 1 2 3 4 4 4 4 4 4 4 4 3 1 0 1 1 2 2 2 1 0 0 0 0 0 0 0 0 0 0 0 0 0 0 0
Wind_Speed
3 2 2 2 2 2 2 2 2 2 2 3 3 4 4 4 4 4 3 8 10 9 10 10 10 10 9 9 9 8 8 8 7 7 7 8 8 9 9 9 9 9 9
3 3 2 2 2 2 2 2 3 3 2 2 3 3 4 4 4 4 3 5 9 10 10 10 10 10 10 10 9 9 8 8 8 7 7 7 7 7 8 8 8 9 9
3 3 3 2 2 2 2 2 2 2 2 2 3 3 3 4 4 5 4 3 4 7 9 9 9 9 9 9 9 9 8 8 7 7 7 7 7 7 7 7 7 7 7
3 3 2 2 2 2 2 2 2 2 2 2 2 3 2 2 4 5 4 4 3 3 6 9 9 9 9 9 9 9 8 7 7 7 6 6 6 7 8 8 7 7 7
3 3 2 2 2 2 2 3 2 2 2 2 2 3 2 2 3 4 4 4 4 4 3 5 8 9 9 9 9 9 8 8 8 7 7 6 6 6 7 8 8 7 7
3 3 2 2 2 2 2 2 2 2 2 2 2 1 2 2 2 3 4 3 3 5 4 4 3 5 8 8 8 9 8 7 7 7 7 7 7 6 6 7 7 7 7
3 3 2 2 2 3 3 3 2 2 2 1 0 1 2 2 2 2 2 2 3 3 3 3 3 2 2 6 7 7 7 7 7 7 6 7 7 6 7 7 7 7 7
2 3 2 2 3 2 2 2 2 2 2 2 2 1 1 3 2 2 1 1 2 2 3 4 4 3 2 2 4 7 7 7 7 7 6 6 7 6 7 7 7 7 7
2 2 2 3 2 2 2 2 2 3 2 1 1 3 2 2 2 2 1 1 1 1 2 2 4 4 4 3 3 5 6 5 6 6 7 7 6 6 7 7 7 6 6
2 2 2 2 2 2 2 2 2 2 2 1 1 1 2 3 2 1 2 1 1 1 1 2 3 3 4 3 4 5 6 6 6 6 7 6 6 6 7 7 7 7 7
1 2 2 2 2 2 2 1 1 2 2 2 1 1 1 0 1 2 1 2 1 1 1 2 1 2 3 3 3 5 6 6 6 7 6 6 6 6 7 8 8 8 8
1 1 2 2 2 2 2 2 1 2 1 1 1 1 1 1 1 2 2 1 1 1 1 0 1 2 2 3 4 6 7 7 7 7 7 7 7 7 7 8 9 8 8
1 1 1 2 2 2 2 2 1 1 1 1 1 1 1 1 1 2 2 1 1 1 1 1 1 1 2 2 2 5 6 6 7 7 7 6 6 7 7 8 8 8 8
2 1 1 1 2 2 2 2 1 1 1 1 1 1 1 1 1 2 2 2 0 1 1 2 1 1 1 1 3 4 3 6 6 6 7 6 6 6 7 7 8 8 7
1 1 1 1 1 1 1 2 1 1 1 1 1 1 1 1 1 1 1 2 3 1 2 2 1 1 1 1 2 2 2 4 5 5 6 6 6 6 6 6 7 7 7
1 1 1 1 1 1 1 1 1 1 1 0 1 1 0 0 0 0 1 1 1 3 2 2 2 1 1 1 1 1 1 3 4 5 5 6 6 6 6 6 7 7 7
2 2 2 2 1 1 1 1 1 1 1 1 1 1 1 1 0 0 1 1 1 2 1 2 1 1 0 0 1 1 1 1 2 5 6 6 5 5 5 6 6 7 7
2 2 2 2 2 2 2 2 2 1 2 2 2 1 1 1 0 0 1 1 1 1 2 1 1 1 1 1 1 1 0 1 1 4 5 5 6 5 5 6 7 7 8
3 2 2 3 3 2 2 2 3 2 2 3 3 2 2 1 1 1 1 1 1 1 1 1 1 1 1 0 0 0 1 1 2 2 4 5 5 6 6 7 7 7 8
3 3 3 3 3 3 2 2 3 3 2 2 2 2 2 3 3 2 1 1 1 1 1 1 1 1 1 1 1 1 1 1 2 1 2 3 4 5 7 7 7 8 8
3 3 2 2 2 2 3 3 3 3 3 2 1 2 2 2 2 2 2 2 2 1 1 1 1 1 1 1 1 1 1 1 2 1 1 2 2 2 3 5 6 8 8
3 3 2 2 2 2 2 4 3 2 2 2 2 1 1 1 1 1 2 3 3 3 3 2 2 2 3 3 2 2 1 1 2 1 1 2 1 2 2 3 6 8 8
3 3 2 2 2 2 3 3 4 3 3 3 3 2 1 1 1 1 1 1 2 3 4 4 3 4 3 4 3 2 2 2 3 2 1 2 2 3 3 3 6 7 8
3 3 3 3 3 3 3 4 4 3 2 2 3 3 3 2 2 1 1 1 2 2 3 3 4 4 4 4 4 4 3 2 2 2 2 2 2 2 2 2 4 6 7
2 2 2 3 3 3 4 4 4 2 2 2 2 3 3 3 3 2 1 1 2 3 2 2 3 3 3 3 3 2 1 1 1 2 1 2 2 1 1 2 2 4 5
3 2 2 3 3 4 5 4 4 2 2 2 2 2 3 3 3 3 2 2 2 3 2 2 2 3 2 2 2 3 4 3 2 2 2 2 2 1 1 2 1 1 2
Wind_Direction
165 165 168 164 174 174 176 180 194 202 216 227 218 206 205 209 213 218 224 216 217 221 220 217 214 215 220 222 222 222 225 225 221 218 220 222 223 220 217 214 210 209 211
165 158 158 165 180 185 185 184 196 202 219 221 226 222 217 218 216 214 216 221 220 221 222 218 215 218 223 224 221 222 224 222 216 216 218 221 220 217 218 215 209 209 212
169 160 158 172 192 181 173 180 200 205 215 222 236 235 230 223 214 213 212 217 219 223 220 215 214 220 222 223 222 219 218 212 212 213 216 219 217 211 214 212 208 207 209
170 157 161 187 192 176 179 188 196 205 226 229 239 245 244 237 225 219 213 209 208 225 226 221 216 215 216 218 222 220 214 208 209 208 211 215 215 211 210 208 208 207 205
172 162 172 196 187 183 200 213 191 190 213 236 240 242 242 235 235 226 220 209 206 211 213 220 215 215 219 222 223 222 217 213 209 208 210 214 213 211 208 208 207 206 202
179 168 178 190 177 185 211 218 200 198 210 227 249 258 253 239 228 227 226 212 208 208 201 210 214 222 220 221 223 225 218 212 210 211 211 213 213 210 201 197 200 203 204
183 173 181 177 175 188 207 207 195 205 228 204 171 314 315 275 233 232 227 208 214 206 185 190 195 203 214 213 214 211 210 213 212 210 210 213 210 210 207 204 201 205 208
182 176 171 176 182 183 194 199 188 185 219 181 162 133 340 338 312 268 228 200 207 194 195 195 191 192 204 211 209 203 207 213 213 213 213 209 207 209 208 208 207 208 210
198 187 176 174 179 173 185 197 183 171 194 234 171 155 164 230 299 324 287 205 193 192 207 199 198 198 203 209 212 214 211 213 217 213 212 209 204 205 203 201 204 203 205
194 196 181 171 171 166 178 203 187 174 163 205 255 210 187 174 171 300 322 304 221 200 223 216 209 202 200 199 202 197 201 208 212 211 211 207 205 208 203 202 203 202 200
223 191 171 159 167 175 183 189 171 168 172 181 195 203 203 178 165 168 268 313 343 290 240 224 201 198 197 194 198 204 204 206 204 207 211 211 213 218 211 206 206 206 203
256 208 177 177 187 186 185 186 181 164 167 167 174 167 165 164 188 171 201 239 276 283 284 254 175 193 196 194 205 200 202 205 204 204 210 214 218 221 216 208 208 209 209
253 245 203 189 194 194 181 166 154 155 160 160 181 182 170 182 183 167 164 199 250 293 326 310 237 197 191 188 211 202 206 209 207 204 208 215 218 220 214 208 209 212 214
219 218 186 180 182 183 187 164 164 196 168 181 167 153 150 184 163 164 169 160 145 328 322 275 296 236 226 214 219 198 211 211 209 203 203 211 216 217 212 208 208 211 211
200 192 188 192 195 178 181 162 175 211 179 185 185 152 160 194 147 156 151 157 162 195 270 266 269 274 240 224 221 198 204 208 198 193 197 201 207 212 213 209 208 207 208
199 186 199 198 187 174 158 164 193 207 158 213 168 123 131 235 169 148 141 135 152 168 214 249 235 252 254 272 221 203 224 200 188 192 202 206 207 208 212 212 208 204 201
190 194 204 191 193 220 208 181 205 175 169 183 181 151 214 207 179 147 117 115 135 146 183 265 257 280 151 245 326 304 257 208 212 209 209 210 207 208 210 211 209 207 205
195 193 197 192 205 220 213 189 203 204 187 188 202 190 223 176 158 212 159 155 188 187 173 234 280 285 248 220 215 235 251 209 224 227 215 206 209 212 213 216 213 212 212
201 203 195 202 215 222 222 210 191 198 202 201 201 199 208 165 187 216 187 196 214 199 171 184 246 261 274 257 118 280 285 275 239 234 218 215 217 219 224 225 219 217 214
196 209 217 216 217 220 219 214 198 192 197 206 210 200 194 186 193 199 189 206 191 160 179 192 231 263 272 283 144 216 287 286 261 247 240 228 226 231 235 233 227 221 214
203 207 210 226 237 228 222 207 206 195 197 206 216 206 199 190 190 198 200 197 173 170 183 204 247 278 274 244 232 224 233 275 281 239 261 255 239 244 243 238 230 222 219
203 193 201 215 238 250 222 197 182 180 179 187 213 234 222 215 230 233 228 206 186 192 205 203 223 234 242 233 223 216 207 214 275 247 182 256 235 247 252 238 232 221 216
199 191 204 197 216 248 220 192 181 174 181 197 206 214 232 247 252 253 264 268 256 235 207 192 209 232 231 225 207 220 217 214 232 230 165 254 247 252 255 250 230 218 211
194 199 209 211 214 237 216 199 185 179 192 208 208 202 205 232 243 203 200 278 274 262 234 206 211 231 232 228 210 209 213 230 276 265 164 221 252 250 257 255 228 209 206
194 205 206 208 217 241 224 205 184 179 195 217 214 201 194 211 229 198 174 243 297 297 282 251 241 249 248 236 200 151 158 162 272 273 211 191 239 262 278 268 252 214 205
203 199 220 221 213 232 233 218 192 184 197 217 230 227 215 216 226 197 182 195 246 272 298 330 327 316 296 271 217 186 185 191 217 255 233 191 215 182 294 290 270 232 212